Flag for U.S.A. Weather past 2 weeks in Costa Mesa, California, U.S.A.

Now
73 °F

Clear.


Feels Like: 76 °F
Forecast: 69 / 89 °F
Wind: No wind

Location: John Wayne Airport-Orange County Airport

Current Time: Aug 28, 2015 at 6:48:21 AM

Latest Report: Aug 28, 2015 at 5:53 AM


Visibility: 10 mi

Pressure: 29.87 "Hg

Humidity: 66%

Dew point: 61 °F

Location of Costa MesaLocation

Historic Weather in Costa Mesa — Graph

°F

Costa Mesa temperature yesterday

Maximum temperature yesterday: 89 °F (at 2:53 PM)
Minimum temperature yesterday: 71 °F (at 1:53 AM)
Average temperature yesterday: 78 °F

Past Weeks' High & Low Weather Summary

 TemperatureHumidityPressure
High90 °F (Aug 14, 2:53 PM)93% (Aug 16, 2:53 AM)29.98 "Hg (Aug 16, 2:53 AM)
Low67 °F (Aug 23, 1:53 AM)34% (Aug 14, 2:53 PM)29.79 "Hg (Aug 16, 5:53 PM)
Average75 °F72%29.90 "Hg
* Reported Aug 13 5:53 AM — Aug 28 5:53 AM, Costa Mesa, Weather by CustomWeather, © 2015

Note: Actual official high and low records may vary slightly from our data, if they occured in-between our weather recording intervals... More about our weather records

Advertising

Costa Mesa weather history for previous 24 hours

 ConditionsComfort  
Time TempWeatherWind HumidityBarometerVisibility
5:53 AM
Fri, Aug 28
73 °FClear.No wind66%29.87 "Hg10 mi
4:53 AM72 °FClear.No wind78%29.87 "Hg10 mi
3:53 AM73 °FClear.No wind81%29.88 "Hg10 mi
2:53 AM73 °FClear.No wind84%29.88 "Hg10 mi
1:53 AM74 °FClear.3 mph71%29.88 "Hg10 mi
12:53 AM75 °FClear.No wind74%29.90 "Hg10 mi
11:53 PM
Thu, Aug 27
75 °FClear.No wind74%29.90 "Hg10 mi
10:53 PM76 °FClear.No wind64%29.91 "Hg10 mi
9:53 PM76 °FClear.No wind60%29.91 "Hg10 mi
8:53 PM76 °FClear.5 mph60%29.90 "Hg10 mi
7:53 PM76 °FSunny.7 mph67%29.88 "Hg10 mi
6:53 PM79 °FPassing clouds.9 mph58%29.86 "Hg10 mi
5:53 PM83 °FScattered clouds.8 mph46%29.86 "Hg10 mi
4:53 PM86 °FScattered clouds.7 mph45%29.87 "Hg10 mi
3:53 PM88 °FPassing clouds.8 mph40%29.88 "Hg10 mi
2:53 PM89 °FScattered clouds.9 mph38%29.90 "Hg10 mi
1:53 PM87 °FScattered clouds.9 mph48%29.93 "Hg10 mi
12:53 PM87 °FPassing clouds.9 mph48%29.95 "Hg10 mi
11:53 AM84 °FPassing clouds.9 mph57%29.97 "Hg10 mi
10:53 AM82 °FPassing clouds.9 mph65%29.98 "Hg10 mi
9:53 AM80 °FScattered clouds.3 mph67%29.98 "Hg9 mi
8:53 AM77 °FPassing clouds.No wind74%29.97 "Hg7 mi
7:53 AM73 °FPassing clouds.3 mph81%29.97 "Hg7 mi
6:53 AM71 °FPassing clouds.3 mph90%29.95 "Hg8 mi
Weather by CustomWeather, © 2015

See weather overviewHow to use our weather pages